Wind_Speed
28 26 26 27 27 26 26 26 26 26 27 27 25 22 22 21 22 21 21 21 20 19 20 21 22 24 25 27 29 28 25 23 21 21 20 19 18 17 16 15 14 13 11
29 27 26 26 25 26 26 26 27 26 26 24 22 21 23 23 24 24 23 23 23 22 23 23 23 24 25 28 30 32 30 27 25 23 23 22 21 20 19 18 16 15 14
28 25 25 25 25 26 27 27 27 27 27 26 25 24 24 24 25 25 24 23 24 24 24 24 24 24 24 26 29 33 34 31 29 27 25 25 24 23 22 20 19 17 16
28 26 25 25 26 27 28 29 29 30 29 29 27 26 25 24 24 23 22 21 21 22 22 22 23 24 24 24 27 30 34 34 33 31 29 27 27 27 26 24 22 20 19
28 25 25 25 26 27 28 28 29 30 31 30 29 27 25 24 22 21 20 19 19 20 20 20 21 23 24 24 25 27 30 32 33 33 31 30 29 29 28 27 25 24 23
27 26 26 26 26 27 27 27 28 30 30 30 29 27 24 22 21 20 19 18 18 18 18 19 19 21 23 24 25 25 27 30 32 33 33 33 32 31 30 29 28 27 26
26 26 27 27 27 27 27 27 27 27 27 27 26 25 23 22 20 20 19 17 16 15 16 17 17 18 20 22 24 25 26 29 31 32 34 34 34 35 33 32 31 29 29
25 25 25 25 26 27 28 28 26 25 25 26 25 24 23 22 21 20 19 17 15 14 14 14 15 17 18 19 21 23 25 27 29 31 33 34 36 37 37 35 34 32 31
26 25 24 24 25 27 28 29 28 26 26 26 26 25 24 23 22 22 21 19 17 16 15 13 14 15 17 18 19 21 24 26 28 29 30 32 34 36 37 37 37 36 35
29 28 27 26 26 27 29 30 30 29 28 28 28 27 26 25 24 24 23 21 20 19 17 15 15 15 16 18 19 20 22 25 27 28 29 30 32 33 35 36 37 38 37
34 33 31 30 30 30 31 32 33 33 32 31 31 30 29 27 26 26 24 22 21 21 20 18 16 16 16 17 18 19 21 24 26 27 28 29 30 32 34 35 36 36 37
41 40 39 37 36 35 35 35 36 36 35 35 34 33 32 29 27 27 26 24 22 21 21 19 18 17 17 18 18 18 20 23 25 27 29 30 30 31 32 34 35 36 37
47 47 46 44 42 41 40 40 39 39 39 38 38 37 36 33 30 28 27 26 24 23 21 20 19 18 18 18 18 18 19 21 24 26 28 29 29 30 31 33 33 35 36
53 53 52 51 49 47 47 45 44 43 43 43 42 41 39 37 34 32 30 28 27 26 24 22 20 20 20 19 19 19 19 20 22 24 26 27 29 29 29 31 32 34 35
58 59 59 58 56 54 52 51 49 48 47 46 46 45 44 42 38 36 33 31 30 29 28 25 23 22 22 21 20 20 19 20 21 23 24 26 27 28 29 31 32 33 35
63 64 64 63 63 61 59 56 55 54 52 50 49 49 48 47 43 40 37 35 32 30 30 28 26 25 24 24 23 21 20 19 21 22 23 24 25 27 28 29 30 32 33
59 66 68 68 68 67 66 64 61 58 55 53 53 52 51 50 48 44 41 38 35 32 30 30 28 27 27 25 24 23 21 19 21 23 24 24 25 24 24 24 23 24 25
50 56 63 69 72 72 71 70 68 65 62 59 57 56 54 53 51 48 45 41 38 34 31 30 29 28 28 26 25 25 23 20 22 24 26 26 26 24 23 21 19 19 21
50 51 53 59 68 74 76 75 73 72 69 66 62 60 58 57 55 52 49 45 41 37 33 30 29 27 27 27 26 25 23 21 21 24 27 28 28 27 25 23 22 21 21
50 50 51 52 56 64 73 78 77 76 74 72 70 66 61 59 56 54 52 48 45 40 36 32 30 28 28 27 26 24 22 21 21 24 27 29 30 29 29 27 26 25 25
49 49 48 49 50 51 57 67 75 77 76 75 73 71 66 61 57 55 54 51 47 43 38 34 31 29 28 27 26 24 22 20 21 24 27 30 31 31 30 28 27 26 25
48 47 47 46 45 44 44 49 57 67 74 76 75 73 71 67 61 56 54 52 50 45 41 36 33 30 29 28 26 24 22 20 21 23 26 29 30 30 29 28 26 25 24
46 47 47 46 44 42 40 38 39 46 56 66 73 74 72 69 65 60 56 53 51 47 43 39 34 32 30 28 26 24 22 21 21 22 25 26 27 27 26 25 25 23 22
45 47 49 47 45 43 40 38 36 36 39 47 58 67 72 71 66 62 58 54 51 48 44 41 37 34 31 29 26 23 21 20 20 21 22 24 25 26 25 24 24 23 22
42 46 49 50 48 45 43 40 39 37 35 36 41 51 61 67 68 65 60 54 51 48 46 43 39 35 32 30 27 23 21 19 19 20 21 23 24 26 26 25 25 25 24
37 43 48 49 50 48 45 42 40 37 35 34 34 38 46 55 63 65 61 56 51 49 47 44 40 37 34 31 27 23 21 20 21 22 22 23 24 26 27 27 27 26 25
Wind_Direction
268 269 266 264 259 257 260 264 265 264 267 267 264 264 267 271 274 273 267 263 258 254 254 256 256 251 245 238 231 227 225 224 223 223 222 219 219 220 222 223 223 224 229
265 268 268 264 257 256 259 261 261 261 264 266 266 264 265 267 269 270 267 263 261 260 259 258 257 255 250 243 236 231 228 226 224 224 225 224 223 223 225 227 228 227 229
266 269 269 265 259 256 256 256 256 257 259 261 262 263 263 264 265 266 265 264 264 265 264 262 260 259 254 248 241 235 232 229 226 224 225 227 228 228 228 229 231 231 228
265 269 269 265 261 257 255 254 252 253 255 258 261 262 262 260 260 262 263 264 266 267 266 263 260 258 256 253 247 239 235 234 231 227 226 227 230 232 232 232 232 232 230
266 268 268 265 262 260 257 253 251 250 251 253 257 260 260 257 256 257 260 265 268 268 267 265 261 257 255 253 250 243 239 238 237 233 229 229 230 232 234 235 233 231 231
264 267 266 263 260 259 257 254 251 250 249 250 252 254 253 251 251 253 259 264 266 266 267 266 263 259 256 253 251 248 244 242 241 238 235 234 233 232 233 235 236 233 232
261 264 265 261 258 256 254 253 251 251 249 246 244 244 244 243 244 248 253 257 260 263 266 266 266 264 261 257 253 250 248 247 246 242 240 239 237 234 234 236 236 237 236
259 261 262 260 257 254 252 252 250 248 245 242 238 238 240 241 242 246 249 252 256 262 266 268 268 267 265 261 256 251 249 249 247 245 243 243 241 238 237 237 237 238 238
261 259 260 260 257 254 252 251 250 246 242 239 238 238 240 241 243 244 247 249 253 258 264 270 272 271 268 264 259 254 251 249 248 247 245 245 243 240 239 240 240 239 238
259 258 260 261 259 255 251 250 250 247 242 239 238 239 241 242 244 245 245 247 250 255 260 266 271 273 272 268 263 258 253 250 249 249 248 246 243 241 241 241 241 240 237
259 258 259 260 259 256 252 249 248 247 244 240 238 239 241 243 244 246 246 247 251 254 257 260 265 271 273 271 268 263 257 252 248 247 246 246 244 242 242 241 241 240 235
256 256 256 256 255 254 252 249 247 245 244 241 239 238 239 241 243 246 249 250 252 255 256 256 261 269 274 276 275 271 262 253 248 245 244 244 245 244 244 241 239 238 235
252 251 252 252 251 251 250 248 246 244 243 242 240 238 238 238 238 241 247 251 253 254 255 256 259 266 274 281 283 279 269 256 249 246 245 244 245 245 243 239 238 235 234
252 249 248 247 247 247 248 246 244 242 242 241 240 239 239 238 237 238 242 248 253 256 257 257 259 264 272 279 287 287 275 260 251 247 246 245 245 244 240 237 234 233 234
252 250 248 246 244 243 243 244 244 241 240 240 240 239 239 239 238 238 240 244 249 254 257 259 260 262 268 275 283 289 281 263 251 246 245 245 244 242 238 235 232 232 233
254 250 248 246 244 242 241 241 241 240 239 238 239 240 240 240 238 238 240 242 246 250 256 260 261 261 265 271 278 286 284 266 250 243 241 241 240 239 237 238 236 233 233
256 252 248 246 244 243 241 239 238 239 239 238 239 240 240 240 239 239 240 241 243 247 253 258 260 261 263 267 273 281 284 268 248 240 238 239 238 236 236 238 237 234 234
263 256 251 247 244 242 241 239 236 236 237 237 237 239 240 241 240 239 239 239 241 244 249 255 259 260 260 262 269 277 282 269 248 239 237 238 238 234 234 236 237 237 236
264 260 256 251 246 242 240 239 237 236 235 235 236 238 239 240 239 239 238 238 239 241 245 252 257 258 257 259 265 274 280 270 250 239 238 239 239 236 236 237 239 241 240
263 258 255 252 250 246 242 239 237 236 235 236 236 236 235 235 237 238 238 237 238 240 244 249 254 255 254 255 261 270 276 268 251 241 239 240 240 239 240 241 243 245 245
260 254 250 248 247 247 245 243 240 238 236 235 235 235 235 235 234 235 237 237 237 239 242 246 249 250 250 252 258 266 271 267 253 244 242 241 240 241 242 245 247 247 247
254 247 244 241 241 242 243 245 244 241 238 236 234 234 235 235 233 233 234 236 236 237 240 243 244 245 247 250 255 262 266 265 255 248 243 240 240 241 241 243 244 244 243
250 242 237 236 236 237 239 241 242 242 241 240 237 234 234 234 234 233 233 233 234 235 236 238 239 240 243 246 251 257 261 262 256 248 242 239 237 237 236 237 237 238 238
249 239 233 232 233 235 237 239 241 242 241 240 240 238 235 233 233 233 231 231 231 232 233 234 234 235 239 242 246 252 256 257 254 248 242 239 236 235 234 235 235 236 235
247 237 231 229 230 232 235 239 242 242 240 239 239 239 237 235 232 230 230 229 228 228 228 229 229 230 233 236 240 245 248 250 249 245 240 239 237 235 235 236 236 236 238
245 235 229 227 227 230 233 237 241 242 241 238 237 236 236 235 232 229 228 227 226 224 224 225 224 225 227 230 233 237 240 242 241 241 240 242 241 239 237 236 235 238 241
Height
5848 5848 5848 5848 5847 5847 5848 5848 5848 5848 5848 5850 5851 5853 5854 5854 5855 5855 5855 5855 5856 5857 5858 5859 5861 5862 5863 5866 5869 5871 5873 5875 5877 5879 5881 5883 5885 5886 5888 5889 5890 5892 5893
5840 5840 5840 5841 5841 5841 5841 5842 5842 5843 5844 5845 5847 5848 5849 5850 5850 5850 5851 5851 5852 5853 5853 5854 5855 5856 5857 5859 5862 5865 5868 5870 5873 5875 5877 5879 5881 5883 5884 5886 5888 5889 5890
5832 5833 5833 5834 5834 5834 5835 5835 5836 5837 5838 5840 5841 5842 5843 5844 5845 5845 5845 5846 5846 5847 5848 5849 5849 5850 5851 5852 5854 5858 5861 5864 5867 5870 5872 5874 5877 5879 5881 5883 5885 5886 5887
5825 5826 5826 5827 5827 5827 5828 5829 5829 5831 5832 5833 5835 5836 5837 5838 5839 5839 5839 5840 5841 5841 5842 5842 5843 5844 5846 5847 5848 5851 5854 5857 5860 5863 5866 5869 5872 5874 5876 5878 5880 5882 5884
5818 5819 5820 5820 5820 5820 5821 5822 5822 5823 5825 5827 5829 5831 5832 5832 5833 5834 5834 5834 5835 5835 5835 5836 5837 5838 5839 5841 5842 5844 5847 5850 5853 5856 5860 5863 5866 5868 5871 5874 5876 5878 5880
5812 5813 5813 5813 5814 5814 5814 5815 5815 5816 5818 5821 5823 5825 5826 5827 5829 5830 5830 5830 5830 5830 5830 5830 5831 5832 5833 5835 5837 5839 5841 5843 5846 5849 5853 5856 5859 5862 5865 5868 5871 5873 5875
5805 5806 5806 5806 5806 5807 5808 5808 5809 5810 5812 5814 5816 5818 5820 5822 5823 5825 5826 5826 5826 5826 5826 5825 5826 5826 5828 5829 5830 5832 5835 5837 5839 5842 5845 5848 5851 5855 5858 5861 5865 5868 5870
5799 5798 5798 5798 5799 5800 5801 5802 5803 5804 5806 5808 5810 5812 5815 5817 5818 5819 5821 5821 5822 5822 5822 5821 5821 5821 5822 5823 5824 5825 5828 5830 5833 5835 5838 5840 5843 5847 5851 5854 5858 5861 5864
5793 5792 5791 5791 5791 5792 5794 5795 5796 5798 5800 5802 5804 5807 5809 5811 5812 5814 5815 5817 5817 5818 5818 5817 5817 5817 5817 5817 5818 5819 5821 5823 5826 5828 5830 5833 5836 5839 5843 5846 5850 5853 5857
5787 5785 5785 5784 5784 5785 5786 5787 5789 5791 5794 5796 5798 5800 5802 5804 5806 5808 5810 5812 5813 5813 5813 5813 5813 5812 5812 5812 5813 5814 5814 5816 5819 5821 5823 5825 5828 5831 5835 5838 5842 5845 5849
5779 5778 5777 5777 5777 5778 5778 5779 5781 5783 5786 5789 5791 5793 5796 5797 5799 5801 5804 5806 5807 5808 5809 5809 5809 5808 5808 5808 5808 5808 5808 5809 5811 5814 5816 5818 5821 5824 5827 5830 5833 5836 5840
5768 5768 5768 5768 5768 5769 5769 5770 5772 5774 5777 5780 5783 5786 5789 5791 5792 5794 5797 5799 5801 5802 5803 5803 5803 5803 5803 5802 5802 5802 5802 5803 5804 5806 5809 5811 5814 5817 5819 5822 5825 5828 5831
5753 5754 5755 5756 5757 5758 5759 5760 5762 5764 5767 5771 5774 5778 5781 5783 5785 5788 5790 5791 5793 5795 5797 5797 5797 5797 5797 5797 5796 5796 5796 5796 5797 5799 5802 5804 5807 5809 5811 5814 5817 5820 5823
5737 5737 5738 5740 5743 5745 5747 5749 5751 5754 5756 5760 5764 5768 5771 5774 5777 5780 5783 5785 5787 5788 5789 5791 5791 5791 5791 5791 5790 5790 5789 5789 5790 5792 5795 5797 5799 5802 5804 5806 5809 5812 5815
5718 5719 5720 5723 5726 5729 5732 5735 5738 5741 5744 5748 5752 5757 5761 5764 5768 5772 5775 5778 5780 5781 5782 5783 5785 5785 5785 5785 5784 5784 5783 5783 5784 5786 5788 5790 5793 5795 5797 5800 5802 5804 5807
5697 5698 5700 5703 5707 5711 5715 5719 5723 5727 5731 5735 5740 5744 5749 5753 5757 5761 5765 5769 5772 5774 5774 5776 5778 5779 5779 5779 5778 5778 5777 5777 5778 5780 5782 5784 5787 5789 5792 5794 5796 5798 5800
5675 5676 5679 5682 5685 5690 5695 5701 5705 5710 5714 5720 5726 5731 5736 5741 5746 5750 5755 5760 5763 5765 5767 5768 5770 5771 5772 5773 5772 5771 5771 5770 5772 5774 5776 5779 5781 5784 5786 5788 5790 5792 5795
5654 5654 5656 5659 5663 5667 5673 5680 5686 5692 5697 5704 5710 5717 5722 5727 5733 5738 5744 5749 5753 5756 5759 5760 5761 5763 5765 5766 5766 5765 5764 5764 5765 5767 5770 5773 5776 5778 5781 5783 5786 5788 5790
5633 5633 5634 5636 5640 5644 5650 5657 5665 5673 5680 5687 5694 5701 5707 5713 5719 5725 5731 5737 5742 5747 5750 5752 5753 5755 5757 5759 5759 5759 5758 5757 5759 5761 5764 5767 5770 5773 5776 5779 5781 5784 5786
5610 5612 5614 5616 5619 5622 5628 5634 5643 5651 5659 5668 5676 5684 5690 5696 5704 5711 5718 5725 5731 5736 5740 5743 5745 5747 5750 5751 5752 5752 5751 5751 5752 5754 5757 5760 5764 5767 5770 5773 5776 5778 5780
5587 5590 5594 5597 5600 5603 5608 5613 5621 5629 5638 5648 5657 5665 5672 5680 5689 5697 5704 5712 5719 5725 5730 5734 5737 5740 5742 5744 5745 5745 5745 5745 5745 5747 5750 5754 5758 5761 5764 5767 5770 5772 5774
5565 5569 5574 5579 5583 5588 5591 5596 5602 5610 5618 5627 5637 5646 5655 5664 5673 5682 5690 5699 5706 5714 5720 5725 5729 5732 5734 5736 5738 5739 5739 5739 5740 5742 5744 5747 5751 5754 5757 5760 5763 5766 5768
5544 5550 5556 5562 5568 5573 5578 5582 5587 5593 5600 5609 5618 5628 5638 5648 5657 5667 5676 5684 5693 5702 5709 5715 5720 5723 5726 5729 5731 5732 5732 5733 5734 5736 5738 5741 5745 5748 5752 5754 5757 5759 5762
5525 5532 5539 5546 5553 5559 5565 5570 5575 5581 5587 5593 5601 5610 5620 5631 5641 5652 5662 5671 5681 5690 5698 5705 5711 5715 5718 5722 5724 5725 5726 5727 5728 5731 5734 5737 5740 5743 5746 5749 5752 5754 5756
5506 5513 5522 5530 5539 5546 5552 5558 5564 5570 5576 5582 5588 5595 5604 5614 5626 5638 5649 5660 5669 5679 5686 5694 5701 5706 5710 5714 5717 5719 5720 5722 5724 5726 5729 5732 5735 5738 5741 5744 5746 5749 5751
5490 5497 5506 5515 5524 5533 5540 5547 5553 5559 5565 5571 5577 5583 5591 5599 5609 5622 5635 5647 5658 5668 5675 5683 5691 5697 5702 5706 5709 5713 5715 5718 5719 5721 5724 5727 5729 5732 5735 5737 5740 5742 5745